Location: ???? ??
(36.0534°N, 43.5630°E)
Time: 19:47:01
(UTC+00:00)

Okean 1 Rocket - Pass Details

Date: 18 September 2019
Orbit: 608 x 633 km, 82.5° (Epoch: 21 October)

Event Time Altitude Azimuth Distance (km) Brightness Sun altitude
Rises 15:38:19 0° 164° (SSE) 2,850 6.2 -6.7°
Reaches altitude 10° 15:40:41 10° 154° (SSE) 1,951 5.3 -7.1°
Maximum altitude 15:44:32 33° 91° (E) 1,036 3.7 -7.9°
Drops below altitude 10° 15:48:26 10° 27° (NNE) 1,970 5.5 -8.7°
Sets 15:50:49 0° 18° (NNE) 2,882 6.4 -9.2°
